#timestamp,LO_Frequency,Hit,StdDev 
1593806415.1,286047011.3,N
1593806416.0,286047011.3,N
1593806435.8,286047013.9,N
1593806455.6,286047013.2,N
1593806475.5,286047012.8,N
1593806495.3,286047012.6,N
1593806515.2,286047015.6,N
1593806535.9,286047014.5,N
1593806555.7,286047015.0,N
1593806575.6,286047016.3,N
1593806595.4,286047016.3,N
1593806615.3,286047015.8,Y
1593806635.1,286047008.2,P
1593806636.0,286047008.2,P
1593806655.8,286047008.3,P
1593806675.7,286047010.4,Y
1593806695.5,286047002.5,P
1593806715.4,286047002.3,N
1593806735.2,286046999.7,N
1593806755.0,286047001.5,N
1593806755.9,286047001.5,N
1593806775.8,286047004.4,N
1593806795.6,286047003.6,N
1593806815.4,286047003.4,N
1593806835.3,286047005.5,N
1593806855.1,286047005.2,N
1593806875.9,286047007.0,Y
1593806895.7,286047004.3,P
1593806915.5,286047001.4,P
1593806935.4,286047003.8,P
1593806955.2,286047006.0,Y
1593806975.1,286046999.7,P
1593806976.0,286046999.7,N
1593806995.8,286047001.5,N
1593807015.6,286047002.5,N
1593807035.5,286047004.4,Y
1593807055.3,286047002.6,P
1593807075.2,286047001.9,N
1593807095.9,286047004.2,P
1593807115.7,286047003.9,Y
1593807135.6,286047002.5,P
1593807155.4,286047002.3,P
1593807175.2,286047001.6,P
1593807195.1,286047002.1,Y
1593807196.0,286047002.1,P
1593807215.8,286047000.0,N
1593807235.7,286047002.4,N
1593807255.5,286047002.2,N
1593807275.3,286047001.3,N
1593807295.2,286047003.6,Y
1593807315.0,286047002.2,P
1593807315.9,286047002.2,P
1593807335.8,286047002.2,P
1593807355.6,286047004.1,Y
1593807375.4,286047002.3,P
1593807395.3,286047001.8,P
1593807415.1,286047004.4,P
1593807435.9,286047003.5,Y
1593807455.7,286047002.7,P
1593807475.5,286047001.9,P
1593807495.4,286047001.7,P
1593807515.2,286047004.4,Y
1593807535.0,286046999.9,P
1593807535.9,286046999.9,N
1593807555.8,286046999.9,N
1593807575.6,286047000.1,N
1593807595.5,286047000.2,N
1593807615.3,286047002.2,N
1593807635.1,286047001.6,N
1593807655.9,286047004.0,Y
1593807675.7,286047003.1,P
1593807695.5,286047003.2,N
1593807715.4,286047006.0,P
1593807735.2,286047005.8,Y
1593807755.1,286047001.7,P
1593807756.0,286047001.7,N
1593807775.8,286047002.1,N
1593807795.6,286047004.4,Y
1593807815.5,286047000.2,P
1593807835.3,286047002.3,N
1593807855.2,286047001.4,N
1593807875.9,286047001.7,N
1593807895.7,286047001.4,N
1593807915.6,286047004.3,Y
1593807935.4,286047002.6,P
1593807955.2,286047001.6,N
1593807975.1,286047004.1,P
1593807976.0,286047004.1,Y
1593807995.8,286047000.1,P
1593808015.7,286046999.7,N
1593808035.5,286047001.6,N
1593808055.3,286047001.3,N
1593808075.2,286047003.5,Y
1593808095.0,286047001.3,P
1593808095.9,286047001.3,P
1593808115.8,286047003.3,P
1593808135.6,286047003.0,Y
1593808155.4,286047003.7,P
1593808175.3,286047003.1,P
1593808195.1,286047006.0,P
1593808215.9,286047005.7,Y
1593808235.7,286047002.0,P
1593808255.5,286047001.3,N
1593808275.4,286047001.4,N
1593808295.2,286047004.0,Y
1593808315.0,286047002.3,P
1593808315.9,286047002.3,P
1593808335.8,286047001.3,P
1593808355.6,286047001.5,Y
1593808375.5,286047000.4,P
1593808395.3,286047002.7,P
1593808415.1,286047000.4,N
1593808435.9,286047002.6,N
1593808455.7,286046999.7,N
1593808475.5,286047002.2,N
1593808495.4,286047001.5,N
1593808515.2,286047004.0,Y
1593808535.1,286047002.6,P
1593808536.0,286047002.6,P
1593808555.8,286047001.6,N
1593808575.6,286047001.8,Y
1593808595.5,286047000.4,P
1593808615.3,286047002.8,P
1593808635.2,286047002.2,N
1593808655.9,286047002.0,N
1593808675.7,286047001.6,N
1593808695.6,286047001.3,N
1593808715.4,286047003.9,Y
1593808735.3,286046999.8,P
1593808755.1,286047002.5,N
1593808756.0,286047002.5,N
1593808775.8,286047001.8,N
1593808795.7,286047004.3,Y
1593808815.5,286047002.1,P
1593808835.4,286047002.3,P
1593808855.2,286047001.8,P
1593808875.0,286047004.1,Y
1593808875.9,286047004.1,P
1593808895.8,286047002.5,N
1593808915.6,286047002.2,N
1593808935.5,286047001.9,N
1593808955.3,286047001.3,N
1593808975.1,286047003.9,Y
1593808995.9,286047002.3,P
1593809015.7,286047001.9,P
1593809035.5,286047001.7,P
1593809055.4,286047001.7,Y
1593809075.2,286047002.4,P
1593809095.1,286047001.9,P
1593809096.0,286047001.9,P
1593809115.8,286047001.5,Y
1593809135.6,286047002.8,P
1593809155.5,286046999.7,N
1593809175.3,286046999.8,N
1593809195.2,286047002.3,N
1593809215.9,286047001.6,N
1593809235.7,286047001.4,N
1593809255.6,286047004.3,Y
1593809275.4,286047002.0,P
1593809295.3,286047001.4,P
1593809315.1,286047004.4,P
1593809316.0,286047004.4,Y
1593809335.8,286047002.8,P
1593809355.7,286047002.7,P
1593809375.5,286047000.1,N
1593809395.3,286047002.2,N
1593809415.2,286047002.2,N
1593809435.0,286047002.0,N
1593809435.9,286047002.0,N
1593809455.8,286047001.5,N
1593809475.6,286047004.4,Y
1593809495.4,286047000.4,P
1593809515.3,286047001.9,N
1593809535.1,286047001.4,N
1593809555.9,286047001.8,N
1593809575.7,286047003.7,Y
1593809595.5,286047004.2,P
1593809615.4,286047004.2,P
1593809635.2,286047003.9,P
1593809655.1,286047003.1,N
1593809656.0,286047003.1,N
1593809675.8,286047006.0,Y
1593809695.6,286047001.9,P
1593809715.5,286047002.4,P
1593809735.3,286047004.0,P
1593809755.2,286047004.2,Y
1593809775.9,286046999.7,P
1593809795.7,286047001.5,N
1593809815.6,286047002.2,N
1593809835.4,286047002.2,N
1593809855.2,286047001.6,N
1593809875.1,286047002.0,N
1593809876.0,286047002.0,N
1593809895.8,286047002.5,N
1593809915.7,286047002.0,N
1593809935.5,286047001.5,N
1593809955.3,286047002.1,N
1593809975.2,286047004.0,Y
1593809995.0,286047002.3,P
1593809995.9,286047002.3,P
